#timestamp,LO_Frequency,Hit,StdDev 
1569650415.7,286046999.8,N
1569650435.6,286047002.3,N
1569650455.4,286047002.1,N
1569650475.3,286047001.8,N
1569650495.1,286047002.8,N
1569650496.0,286047002.8,N
1569650515.8,286047000.1,N
1569650535.7,286047000.4,N
1569650555.5,286047000.7,N
1569650575.3,286047000.0,N
1569650595.2,286047001.0,N
1569650615.0,286047001.1,N
1569650615.9,286047001.1,N
1569650635.8,286047000.6,N
1569650655.6,286047002.6,N
1569650675.4,286047000.0,N
1569650695.3,286047000.7,N
1569650715.1,286046998.8,N
1569650735.9,286046998.2,N
1569650755.7,286046999.1,N
1569650775.5,286046999.4,N
1569650795.4,286046999.7,N
1569650815.2,286047002.7,N
1569650835.0,286047002.7,N
1569650836.0,286047002.7,N
1569650855.8,286047000.2,N
1569650875.6,286047002.7,N
1569650895.5,286047000.2,N
1569650915.3,286047000.2,N
1569650935.1,286047000.2,N
1569650955.9,286046999.0,N
1569650975.7,286047000.4,N
1569650995.6,286047000.9,N
1569651015.4,286047001.2,N
1569651035.2,286047002.7,N
1569651055.1,286047000.3,N
1569651056.0,286047000.3,N
1569651075.8,286047000.3,N
1569651095.7,286047002.6,N
1569651115.5,286047002.8,N
1569651135.3,286047002.4,N
1569651155.2,286046998.1,N
1569651175.0,286046998.2,N
1569651175.9,286046998.2,N
1569651195.8,286046998.1,N
1569651215.6,286047002.8,N
1569651235.4,286047000.1,N
1569651255.3,286047001.7,N
1569651275.1,286047003.7,N
1569651295.8,286047003.8,N
1569651315.7,286047003.4,N
1569651335.5,286047003.7,N
1569651355.4,286047003.7,N
1569651375.2,286047005.8,Y
1569651395.0,286047003.6,P
1569651395.9,286047003.6,P
1569651415.8,286047004.1,P
1569651435.6,286047001.7,N
1569651455.5,286047002.1,N
1569651475.3,286047002.8,N
1569651495.1,286047002.3,N
1569651515.9,286046999.9,N
1569651535.7,286047002.8,N
1569651555.5,286047000.5,N
1569651575.4,286047001.0,N
1569651595.2,286047001.0,N
1569651615.1,286047000.9,N
1569651616.0,286047000.9,N
1569651635.8,286047000.4,N
1569651655.6,286047001.2,N
1569651675.5,286047000.1,N
1569651695.3,286047000.4,N
1569651715.1,286046998.1,N
1569651735.9,286047001.2,N
1569651755.7,286047000.5,N
1569651775.6,286047002.3,N
1569651795.4,286047002.0,N
1569651815.2,286047003.2,N
1569651835.1,286047005.6,Y
1569651836.0,286047005.6,P
1569651855.8,286047000.6,N
1569651875.7,286046998.6,N
1569651895.5,286046998.7,N
1569651915.3,286046998.9,N
1569651935.2,286047001.0,N
1569651955.0,286047000.9,N
1569651955.9,286047000.9,N
1569651975.8,286046999.8,N
1569651995.6,286047003.9,N
1569652015.4,286047004.0,N
1569652035.3,286047003.8,N
1569652055.1,286047001.4,N
1569652075.9,286047002.8,N
1569652095.7,286047001.1,N
1569652115.5,286046999.0,N
1569652135.4,286046999.2,N
1569652155.2,286046996.9,N
1569652175.1,286046996.7,N
1569652176.0,286046996.7,N
1569652195.8,286046999.1,N
1569652215.6,286046996.6,N
1569652235.5,286046996.9,N
1569652255.3,286046999.2,N
1569652275.1,286046997.6,N
1569652295.9,286046998.8,N
1569652315.7,286046998.9,N
1569652335.6,286047000.3,N
1569652355.4,286047001.2,N
1569652375.3,286047001.0,N
1569652395.1,286047001.1,N
1569652415.8,286046998.3,N
1569652435.7,286047000.8,N
1569652455.5,286047000.2,N
1569652475.4,286047003.1,N
1569652495.2,286047003.7,N
1569652515.0,286047003.6,N
1569652515.9,286047003.6,N
1569652535.8,286047003.3,N
1569652555.6,286047005.8,N
1569652575.4,286047004.7,N
1569652595.3,286047007.5,N
1569652615.1,286047005.0,N
1569652635.9,286047004.5,N
1569652655.7,286047007.4,N
1569652675.5,286047009.2,N
1569652695.4,286047004.6,N
1569652715.2,286047004.8,N
1569652735.0,286047005.2,N
1569652736.0,286047005.2,N
1569652755.8,286047007.5,N
1569652775.6,286047007.5,N
1569652795.5,286047004.9,N
1569652815.3,286047005.1,N
1569652835.1,286047005.1,N
1569652855.9,286047007.1,N
1569652875.7,286047007.6,N
1569652895.6,286047006.6,N
1569652915.4,286047007.1,N
1569652935.2,286047006.8,N
1569652955.1,286047006.9,N
1569652956.0,286047006.9,N
1569652975.8,286047007.0,Y
1569652995.7,286047000.0,P
1569653015.5,286047000.6,N
1569653035.3,286046998.4,N
1569653055.2,286047001.2,N
1569653075.0,286046998.5,N
1569653075.9,286046998.5,N
1569653095.7,286046998.5,N
1569653115.6,286046998.3,N
1569653135.4,286046999.1,N
1569653155.3,286046996.5,N
1569653175.1,286046996.5,N
1569653176.0,286046996.5,N
1569653195.8,286046997.0,N
1569653215.7,286046997.2,N
1569653235.5,286046995.5,N
1569653255.3,286046995.6,N
1569653275.2,286046995.2,N
1569653295.0,286046995.0,N
1569653295.9,286046995.0,N
1569653315.8,286046995.1,N
1569653335.6,286046993.7,N
1569653355.4,286046996.3,N
1569653375.3,286046994.1,N
1569653395.1,286046993.9,N
1569653415.9,286046994.5,N
1569653435.7,286046994.7,N
1569653455.5,286046991.8,Y
1569653475.4,286046996.9,P
1569653495.2,286046995.2,P
1569653515.1,286046997.8,N
1569653516.0,286046997.8,N
1569653535.8,286046997.5,N
1569653555.6,286046997.4,N
1569653575.5,286046995.5,Y
1569653595.3,286046998.7,P
1569653615.2,286046999.0,N
1569653635.9,286046998.2,N
1569653655.7,286047000.9,N
1569653675.6,286047002.7,N
1569653695.4,286047001.0,N
1569653715.2,286047000.1,N
1569653735.1,286047000.8,N
1569653736.0,286047000.8,N
1569653755.8,286046998.2,N
1569653775.7,286046995.5,N
1569653795.5,286046993.7,Y
1569653815.3,286046995.6,P
1569653835.2,286046997.1,N
1569653855.0,286046999.4,N
1569653855.9,286046999.4,N
1569653875.8,286047000.6,N
1569653895.6,286046998.9,N
1569653915.4,286046999.0,N
1569653935.3,286046998.7,N
1569653955.1,286047000.8,N
1569653975.8,286046999.0,N
1569653995.7,286046998.5,N
